Regional Weather Roundup
Issued by NWS Charleston, SC

Current Version | Previous Version | Graphics & Text | Print | Product List | Glossary On
Versions: 1 2 3 4 5 6 7 8 9 10 11 12 13 14 15 16 17 18 19 20 21 22 23 24 25 26 27 28 29 30 31 32 33 34 35 36 37 38 39 40 41 42 43 44 45 46 47 48 49 50
000 ASUS42 KCHS 312010 RWRCHS REGIONAL WEATHER ROUNDUP NATIONAL WEATHER SERVICE CHARLESTON SC 400 PM EDT SUN AUG 31 2014 NOTE: "FAIR" INDICATES FEW OR NO CLOUDS BELOW 12,000 FEET WITH NO SIGNIFICANT WEATHER AND/OR OBSTRUCTIONS TO VISIBILITY. NOT ALL STATIONS ARE QUALITY CONTROLLED BY THE NATIONAL WEATHER SERVICE. USE DATA WITH CAUTION...ESPECIALLY DEWPOINT OBSERVATIONS. SCZ027-030-031-034>040-042>050-312100- ...SOUTH CAROLINA... CITY SKY/WX TMP DP RH WIND PRES REMARKS N CHARLESTON MOSUNNY 91 73 55 SE15 30.08F HX 99 WATERFRONT PRK N/A 84 N/A N/A SE13 N/A FORT JOHNSON NOT AVBL MOUNT PLEASANT FAIR 88 77 70 SE8 30.09F HX 100 JOHNS ISLAND CLEAR 88 79 74 SE12 30.10F HX 102 PINOPOLIS N/A 93 72 49 N3 30.01F HX 100 MONCKS CORNER N/A 95 75 52 S6 30.07F HX 107 SUMMERVILLE FAIR 95 70 43 SE3 30.08F HX 101 BEAUFORT MCAS MOSUNNY 91 76 61 SW7 30.08F HX 103 BEAUFORT ARPT FAIR 88 77 70 SE6 30.09S HX 100 HILTON HEAD IS MOSUNNY 88 75 66 SE9 30.11F HX 97 GEORGETOWN NOT AVBL WALTERBORO PTCLDY 95 61 31 SE8 30.07F HX 95 ORANGEBURG SUNNY 96 65 35 SE7 30.05F HX 98 BARNWELL DRIZZLE 88 73 62 S8 30.06F HX 96 AIKEN MOCLDY 82 72 69 E17G24 30.10S THUNDER MANNING FAIR 93 73 52 SW8 30.07F HX 102 KINGSTREE NOT AVBL COLUMBIA PTSUNNY 98 66 34 NW8 30.03F HX 101 SUMTER SUNNY 96 71 43 VRB7 30.04F HX 103 FLORENCE SUNNY 94 67 41 S8 30.07F HX 97 MYRTLE BEACH MOSUNNY 88 75 66 SE9 30.10F HX 97 N MYRTLE BEACH SUNNY 85 76 74 S8 30.10F HX 94 $$ GAZ063-065-086>088-099>101-113>116-118-119-134-136>141-150-312100- ...GEORGIA... CITY SKY/WX TMP DP RH WIND PRES REMARKS SAVANNAH ARPT MOSUNNY 92 75 57 SE15 30.08F HX 103 HUNTER AAF MOSUNNY 89 76 65 SE13 30.07F HX 100 FORT STEWART PTSUNNY 91 75 57 E13 30.06F HX 102 STATESBORO NOT AVBL SYLVANIA PTCLDY 94 71 48 S5 30.06F HX 101 CLAXTON NOT AVBL THOMSON SUNNY 94 76 55 N9 30.11F HX 107 AUGUSTA-BUSH PTSUNNY 94 71 47 NE5 30.04F HX 101 AUGUSTA-DANIEL MOSUNNY 96 68 39 N7 30.06F HX 101 SWAINSBORO FAIR 91 73 55 NE8 30.08S THUNDER HX 100 VIDALIA N/A 91 73 55 SW5 30.06F HX 100 ALMA SUNNY 97 68 38 VRB7 30.05F HX 102 WAYCROSS PTSUNNY 100 74 43 S6 30.05F HX 112 JESUP N/A 99 73 44 E8 30.06F HX 109 BRUNSWICK MOSUNNY 90 73 58 SE13 30.09F HX 98 SAINT SIMONS SUNNY 86 75 69 SE13 30.09F HX 95 $$ SCZ027-028-034-036>038-045-046-048>050-GAZ119-141-312100- ...LAKE AND SUPPLEMENTAL COASTAL OBSERVATIONS... STATION/POSITION TIME TEMP WIND PRES WAVE SWELL AIR SEA DIR/SP/G HT/PER HT/PER/DIR (UTC) (F) (DEG/KT/KT) (MB) (FT/S) (FT/S/D) UPR LAKE MARION NOT AVBL WINYAH BAY 1900 84 110/ 5 1019.0F LAKE MURRAY 1900 91 250/ 2/ 7 1017.6F ACE BASIN NERRS 1900 89 140/ 4 1020.0S FORT PULASKI 2000 86 130/ 7/ 11 1019.6S SAPELO ISLAND 1900 90 100/ 5 1021.0S $$ ANZ835-935-AMZ111-154-330-350-352-354-374-450-454-472-312100- ...C-MAN AND BUOY OBSERVATIONS... STATION/POSITION TIME TEMP WIND PRES WAVE SWELL AIR SEA DIR/SP/G HT/PER HT/PER/DIR (UTC) (F) (DEG/KT/KT) (MB) (FT/S) (FT/S/D) FOLLY BEACH CMAN 1900 83 130/ 11/ 12 1019.9F BUOY 41004 2000 82 83 180/ 2/ 4 1019.0F 3/ 9 2/ 9 BUOY 41008 2000 83 86 150/ 8/ 10 1019.5F 2/10 2/120/10 5E ST. MARYS GA 2000 86 N/A 2/11 2/110/11 FRYING PAN BUOY NOT AVBL BUOY 41025 2000 81 180/ 14/ 16 1020.0F 3/ 8 3/120/ 8 CAPE LOOKOUT NC 1900 82 180/ 8/ 9 1020.3F BUOY 41002 1948 82 84 160/ 8/ 10 1021.6F 3/ 9 3/130/ 9 BUOY 41010 2000 83 85 140/ 6/ 8 1019.9F 3/ 9 3/ 90/ 9 BUOY 41012 NOT AVBL ST AUGUSTINE FL 2000 82 130/ 9/ 10 1020.0F CAPERS NEARSHORE 1900 84 140/ 10/ 10 N/A FRIPP NEARSHORE NOT AVBL $$

USA.gov is the U.S. government's official web portal to all federal, state and local government web resources and services.